Time,TemperatureF,DewpointF,PressureIn,WindDirection,WindDirectionDegrees,WindSpeedMPH,WindSpeedGustMPH,Humidity,HourlyPrecipIn,Conditions,Clouds,dailyrainin,SoftwareType,DateUTC
2013-02-09 00:04:00,33.6,26.4,30.29,NW,315,0.0,7.8,75,0.00,,,0.00,WUHU216HW,2013-02-09 05:04:00,
2013-02-09 00:09:00,33.4,25.9,30.28,North,0,2.4,2.4,74,0.00,,,0.00,WUHU216HW,2013-02-09 05:09:00,
2013-02-09 00:14:00,33.2,25.7,30.28,West,270,0.0,2.4,74,0.00,,,0.00,WUHU216HW,2013-02-09 05:14:00,
2013-02-09 00:19:00,33.0,25.6,30.28,NW,315,0.0,2.2,74,0.00,,,0.00,WUHU216HW,2013-02-09 05:19:00,
2013-02-09 00:24:00,33.0,25.6,30.28,WSW,248,0.0,8.2,74,0.00,,,0.00,WUHU216HW,2013-02-09 05:24:00,
2013-02-09 00:29:00,33.0,25.6,30.29,NW,315,2.0,8.2,74,0.00,,,0.00,WUHU216HW,2013-02-09 05:29:00,
2013-02-09 00:34:00,32.9,25.7,30.28,NW,315,0.0,2.0,75,0.00,,,0.00,WUHU216HW,2013-02-09 05:34:00,
2013-02-09 00:39:00,32.9,25.7,30.28,NW,315,0.0,2.6,75,0.00,,,0.00,WUHU216HW,2013-02-09 05:39:00,
2013-02-09 00:44:00,32.7,25.6,30.28,NW,315,0.0,2.6,75,0.00,,,0.00,WUHU216HW,2013-02-09 05:44:00,
2013-02-09 00:49:00,32.7,25.6,30.28,NW,315,4.0,4.0,75,0.00,,,0.00,WUHU216HW,2013-02-09 05:49:00,
2013-02-09 00:54:00,32.5,25.4,30.28,NNW,338,0.8,4.0,75,0.00,,,0.00,WUHU216HW,2013-02-09 05:54:00,
2013-02-09 00:59:00,32.5,25.4,30.28,NW,315,0.0,4.0,75,0.00,,,0.00,WUHU216HW,2013-02-09 05:59:00,
2013-02-09 01:04:00,32.1,25.4,30.28,NNW,338,0.0,7.1,76,0.00,,,0.00,WUHU216HW,2013-02-09 06:04:00,
2013-02-09 01:09:00,32.1,25.4,30.27,NW,315,7.8,7.8,76,0.00,,,0.00,WUHU216HW,2013-02-09 06:09:00,
2013-02-09 01:14:00,32.1,24.8,30.27,NW,315,1.3,7.8,75,0.00,,,0.00,WUHU216HW,2013-02-09 06:14:00,
2013-02-09 01:19:00,31.8,24.8,30.26,NNW,338,0.0,6.2,75,0.00,,,0.00,WUHU216HW,2013-02-09 06:19:00,
2013-02-09 01:24:00,31.8,24.8,30.27,NW,315,9.1,9.1,75,0.00,,,0.00,WUHU216HW,2013-02-09 06:24:00,
2013-02-09 01:29:00,31.8,24.9,30.27,NNW,338,0.0,9.1,76,0.00,,,0.00,WUHU216HW,2013-02-09 06:29:00,
2013-02-09 01:34:00,31.6,24.9,30.27,NW,315,6.9,6.9,76,0.00,,,0.00,WUHU216HW,2013-02-09 06:34:00,
2013-02-09 01:39:00,31.6,24.9,30.27,NW,315,5.3,6.9,76,0.00,,,0.00,WUHU216HW,2013-02-09 06:39:00,
2013-02-09 01:44:00,31.6,24.9,30.27,NW,315,0.0,6.9,76,0.00,,,0.00,WUHU216HW,2013-02-09 06:44:00,
2013-02-09 01:49:00,31.6,24.9,30.28,NW,315,2.2,2.2,76,0.00,,,0.00,WUHU216HW,2013-02-09 06:49:00,
2013-02-09 01:54:00,31.4,24.7,30.28,NW,315,0.0,2.2,76,0.00,,,0.00,WUHU216HW,2013-02-09 06:54:00,
2013-02-09 01:59:00,31.2,24.5,30.28,NW,315,8.0,8.0,76,0.00,,,0.00,WUHU216HW,2013-02-09 06:59:00,
2013-02-09 02:04:00,31.2,24.5,30.29,NNW,338,0.0,8.0,76,0.00,,,0.00,WUHU216HW,2013-02-09 07:04:00,
2013-02-09 02:09:00,31.2,24.5,30.29,North,0,0.0,8.0,76,0.00,,,0.00,WUHU216HW,2013-02-09 07:09:00,
2013-02-09 02:14:00,31.2,24.5,30.29,NNW,338,0.0,0.0,76,0.00,,,0.00,WUHU216HW,2013-02-09 07:14:00,
2013-02-09 02:19:00,31.2,24.5,30.29,NNW,338,2.4,2.6,76,0.00,,,0.00,WUHU216HW,2013-02-09 07:19:00,
2013-02-09 02:24:00,31.2,24.5,30.29,NW,315,0.8,3.3,76,0.00,,,0.00,WUHU216HW,2013-02-09 07:24:00,
2013-02-09 02:29:00,31.2,24.5,30.29,NW,315,0.0,3.3,76,0.00,,,0.00,WUHU216HW,2013-02-09 07:29:00,
2013-02-09 02:34:00,31.1,24.4,30.30,NNW,338,0.0,3.8,76,0.00,,,0.00,WUHU216HW,2013-02-09 07:34:00,
2013-02-09 02:39:00,31.1,24.4,30.30,WSW,248,2.4,3.8,76,0.00,,,0.00,WUHU216HW,2013-02-09 07:39:00,
2013-02-09 02:44:00,31.1,24.7,30.30,North,0,4.2,4.2,77,0.00,,,0.00,WUHU216HW,2013-02-09 07:44:00,
2013-02-09 02:50:00,31.1,24.7,30.30,NNW,338,0.0,4.2,77,0.00,,,0.00,WUHU216HW,2013-02-09 07:50:00,
2013-02-09 02:55:00,31.1,24.7,30.31,NNW,338,6.7,6.7,77,0.00,,,0.00,WUHU216HW,2013-02-09 07:55:00,
2013-02-09 03:00:00,31.1,24.7,30.31,NW,315,0.0,6.9,77,0.00,,,0.00,WUHU216HW,2013-02-09 08:00:00,
2013-02-09 03:05:00,30.9,24.5,30.31,WNW,293,5.8,6.9,77,0.00,,,0.00,WUHU216HW,2013-02-09 08:05:00,
2013-02-09 03:10:00,30.9,24.5,30.31,NW,315,0.0,5.8,77,0.00,,,0.00,WUHU216HW,2013-02-09 08:10:00,
2013-02-09 03:15:00,30.9,24.5,30.31,NNW,338,0.0,5.8,77,0.00,,,0.00,WUHU216HW,2013-02-09 08:15:00,
2013-02-09 03:20:00,30.9,24.5,30.31,NNW,338,0.0,5.1,77,0.00,,,0.00,WUHU216HW,2013-02-09 08:20:00,
2013-02-09 03:25:00,30.9,24.5,30.32,NW,315,0.0,5.1,77,0.00,,,0.00,WUHU216HW,2013-02-09 08:25:00,
2013-02-09 03:30:00,30.9,24.5,30.32,NNW,338,6.4,6.4,77,0.00,,,0.00,WUHU216HW,2013-02-09 08:30:00,
2013-02-09 03:35:00,30.9,24.5,30.32,WNW,293,0.0,7.6,77,0.00,,,0.00,WUHU216HW,2013-02-09 08:35:00,
2013-02-09 03:40:00,30.9,24.5,30.31,NW,315,0.8,7.6,77,0.00,,,0.00,WUHU216HW,2013-02-09 08:40:00,
2013-02-09 03:45:00,30.9,24.5,30.32,NW,315,0.0,0.8,77,0.00,,,0.00,WUHU216HW,2013-02-09 08:45:00,
2013-02-09 03:50:00,30.7,24.3,30.31,NNW,338,0.0,0.0,77,0.00,,,0.00,WUHU216HW,2013-02-09 08:50:00,
2013-02-09 03:55:00,30.7,24.3,30.31,NNW,338,0.0,0.0,77,0.00,,,0.00,WUHU216HW,2013-02-09 08:55:00,
2013-02-09 04:00:00,30.7,24.6,30.31,NW,315,0.0,3.3,78,0.00,,,0.00,WUHU216HW,2013-02-09 09:00:00,
2013-02-09 04:05:00,30.5,24.5,30.31,NNW,338,0.8,3.3,78,0.00,,,0.00,WUHU216HW,2013-02-09 09:05:00,
2013-02-09 04:10:00,30.5,24.5,30.31,NW,315,0.0,0.8,78,0.00,,,0.00,WUHU216HW,2013-02-09 09:10:00,
2013-02-09 04:15:00,30.5,24.5,30.31,NW,315,0.0,4.9,78,0.00,,,0.00,WUHU216HW,2013-02-09 09:15:00,
2013-02-09 04:20:00,30.5,24.5,30.32,NNW,338,3.8,5.3,78,0.00,,,0.00,WUHU216HW,2013-02-09 09:20:00,
2013-02-09 04:25:00,30.5,24.5,30.32,NNW,338,5.3,5.3,78,0.00,,,0.00,WUHU216HW,2013-02-09 09:25:00,
2013-02-09 04:30:00,30.5,24.5,30.32,NW,315,1.7,5.3,78,0.00,,,0.00,WUHU216HW,2013-02-09 09:30:00,
2013-02-09 04:35:00,30.3,24.3,30.32,NW,315,8.7,8.7,78,0.00,,,0.00,WUHU216HW,2013-02-09 09:35:00,
2013-02-09 04:40:00,30.3,24.3,30.32,NNW,338,1.7,8.7,78,0.00,,,0.00,WUHU216HW,2013-02-09 09:40:00,
2013-02-09 04:45:00,30.3,24.3,30.32,NW,315,3.3,8.7,78,0.00,,,0.00,WUHU216HW,2013-02-09 09:45:00,
2013-02-09 04:50:00,30.2,24.1,30.32,NW,315,0.0,6.2,78,0.00,,,0.00,WUHU216HW,2013-02-09 09:50:00,
2013-02-09 04:55:00,30.2,24.1,30.32,NW,315,0.0,6.2,78,0.00,,,0.00,WUHU216HW,2013-02-09 09:55:00,
2013-02-09 05:00:00,30.0,23.9,30.32,NNW,338,0.0,4.4,78,0.00,,,0.00,WUHU216HW,2013-02-09 10:00:00,
2013-02-09 05:05:00,30.0,23.9,30.32,NW,315,0.0,2.0,78,0.00,,,0.00,WUHU216HW,2013-02-09 10:05:00,
2013-02-09 05:10:00,30.0,23.9,30.32,NW,315,0.0,0.0,78,0.00,,,0.00,WUHU216HW,2013-02-09 10:10:00,
2013-02-09 05:15:00,30.0,23.9,30.32,NW,315,0.0,0.0,78,0.00,,,0.00,WUHU216HW,2013-02-09 10:15:00,
2013-02-09 05:20:00,30.0,23.9,30.32,NW,315,0.0,8.0,78,0.00,,,0.00,WUHU216HW,2013-02-09 10:20:00,
2013-02-09 05:25:00,29.8,23.7,30.33,NW,315,0.0,8.0,78,0.00,,,0.00,WUHU216HW,2013-02-09 10:25:00,
2013-02-09 05:30:00,29.8,23.7,30.34,NW,315,0.0,3.5,78,0.00,,,0.00,WUHU216HW,2013-02-09 10:30:00,
2013-02-09 05:35:00,29.6,23.6,30.34,NNW,338,6.9,6.9,78,0.00,,,0.00,WUHU216HW,2013-02-09 10:35:00,
2013-02-09 05:40:00,29.6,23.6,30.34,NNW,338,0.0,6.9,78,0.00,,,0.00,WUHU216HW,2013-02-09 10:40:00,
2013-02-09 05:45:00,29.4,23.1,30.34,NW,315,0.0,8.2,78,0.00,,,0.00,WUHU216HW,2013-02-09 10:45:00,
2013-02-09 05:50:00,29.4,23.1,30.34,NNW,338,2.9,8.2,77,0.00,,,0.00,WUHU216HW,2013-02-09 10:50:00,
2013-02-09 05:55:00,29.4,23.1,30.34,NNW,338,0.0,2.9,77,0.00,,,0.00,WUHU216HW,2013-02-09 10:55:00,
2013-02-09 06:00:00,29.3,22.9,30.34,NNW,338,4.2,4.2,77,0.00,,,0.00,WUHU216HW,2013-02-09 11:00:00,
2013-02-09 06:05:00,29.3,22.9,30.34,NW,315,2.2,4.2,77,0.00,,,0.00,WUHU216HW,2013-02-09 11:05:00,
2013-02-09 06:10:00,29.1,22.7,30.34,NW,315,0.0,4.2,77,0.00,,,0.00,WUHU216HW,2013-02-09 11:10:00,
2013-02-09 06:15:00,29.1,22.7,30.35,NNW,338,1.5,3.3,77,0.00,,,0.00,WUHU216HW,2013-02-09 11:15:00,
2013-02-09 06:20:00,29.1,22.7,30.35,NW,315,8.2,8.2,77,0.00,,,0.00,WUHU216HW,2013-02-09 11:20:00,
2013-02-09 06:25:00,29.1,22.7,30.35,NW,315,0.0,8.2,77,0.00,,,0.00,WUHU216HW,2013-02-09 11:25:00,
2013-02-09 06:30:00,28.9,22.6,30.35,NW,315,6.0,8.2,77,0.00,,,0.00,WUHU216HW,2013-02-09 11:30:00,
2013-02-09 06:35:00,28.9,22.6,30.35,NNW,338,0.0,6.0,77,0.00,,,0.00,WUHU216HW,2013-02-09 11:35:00,
2013-02-09 06:40:00,28.7,22.7,30.35,NNW,338,0.0,6.0,78,0.00,,,0.00,WUHU216HW,2013-02-09 11:40:00,
2013-02-09 06:45:00,28.7,22.7,30.35,NNW,338,0.0,0.0,78,0.00,,,0.00,WUHU216HW,2013-02-09 11:45:00,
2013-02-09 06:50:00,28.7,22.7,30.35,NNW,338,0.0,0.0,78,0.00,,,0.00,WUHU216HW,2013-02-09 11:50:00,
2013-02-09 06:55:00,28.5,22.5,30.35,West,270,0.0,0.0,78,0.00,,,0.00,WUHU216HW,2013-02-09 11:55:00,
2013-02-09 07:00:00,28.5,22.5,30.36,NNW,338,0.0,0.0,78,0.00,,,0.00,WUHU216HW,2013-02-09 12:00:00,
2013-02-09 07:05:00,28.5,22.5,30.36,NNW,338,0.0,0.0,78,0.00,,,0.00,WUHU216HW,2013-02-09 12:05:00,
2013-02-09 07:10:00,28.4,22.3,30.37,NNE,23,0.0,0.0,78,0.00,,,0.00,WUHU216HW,2013-02-09 12:10:00,
2013-02-09 07:15:00,28.2,22.2,30.37,NW,315,0.0,0.0,78,0.00,,,0.00,WUHU216HW,2013-02-09 12:15:00,
2013-02-09 07:20:00,28.2,22.2,30.37,NW,315,6.9,6.9,78,0.00,,,0.00,WUHU216HW,2013-02-09 12:20:00,
2013-02-09 07:25:00,28.2,22.2,30.37,NW,315,0.0,6.9,78,0.00,,,0.00,WUHU216HW,2013-02-09 12:25:00,
2013-02-09 07:30:00,28.0,22.0,30.38,West,270,0.0,6.9,78,0.00,,,0.00,WUHU216HW,2013-02-09 12:30:00,
2013-02-09 07:35:00,28.0,22.0,30.38,West,270,0.0,0.0,78,0.00,,,0.00,WUHU216HW,2013-02-09 12:35:00,
2013-02-09 07:40:00,28.0,22.0,30.38,WNW,293,2.4,2.4,78,0.00,,,0.00,WUHU216HW,2013-02-09 12:40:00,
2013-02-09 07:45:00,28.0,22.0,30.38,NW,315,0.0,2.4,78,0.00,,,0.00,WUHU216HW,2013-02-09 12:45:00,
2013-02-09 07:50:00,27.8,21.8,30.39,WSW,248,0.0,0.0,78,0.00,,,0.00,WUHU216HW,2013-02-09 12:50:00,
2013-02-09 07:55:00,27.6,21.9,30.38,WSW,248,0.0,0.0,79,0.00,,,0.00,WUHU216HW,2013-02-09 12:55:00,
2013-02-09 08:00:00,27.6,21.9,30.38,NW,315,0.0,0.0,79,0.00,,,0.00,WUHU216HW,2013-02-09 13:00:00,
2013-02-09 08:05:00,27.6,21.9,30.39,NW,315,0.0,0.0,79,0.00,,,0.00,WUHU216HW,2013-02-09 13:05:00,
2013-02-09 08:10:00,27.6,21.9,30.39,NW,315,0.0,0.0,79,0.00,,,0.00,WUHU216HW,2013-02-09 13:10:00,
2013-02-09 08:15:00,27.8,22.1,30.39,West,270,0.0,0.0,79,0.00,,,0.00,WUHU216HW,2013-02-09 13:15:00,
2013-02-09 08:20:00,28.0,22.3,30.39,West,270,0.0,0.0,79,0.00,,,0.00,WUHU216HW,2013-02-09 13:20:00,
2013-02-09 08:25:00,28.0,22.3,30.39,West,270,0.0,0.0,79,0.00,,,0.00,WUHU216HW,2013-02-09 13:25:00,
2013-02-09 08:30:00,28.0,22.3,30.39,WNW,293,0.0,0.0,79,0.00,,,0.00,WUHU216HW,2013-02-09 13:30:00,
2013-02-09 08:35:00,28.2,22.5,30.40,WNW,293,0.0,0.0,79,0.00,,,0.00,WUHU216HW,2013-02-09 13:35:00,
2013-02-09 08:40:00,28.2,22.8,30.40,WNW,293,0.0,0.0,80,0.00,,,0.00,WUHU216HW,2013-02-09 13:40:00,
2013-02-09 08:45:00,28.5,23.1,30.40,West,270,0.0,0.0,80,0.00,,,0.00,WUHU216HW,2013-02-09 13:45:00,
2013-02-09 08:50:00,28.9,23.5,30.40,West,270,0.0,0.0,80,0.00,,,0.00,WUHU216HW,2013-02-09 13:50:00,
2013-02-09 08:55:00,29.3,23.9,30.40,WNW,293,0.0,0.0,80,0.00,,,0.00,WUHU216HW,2013-02-09 13:55:00,
2013-02-09 09:00:00,30.0,24.2,30.41,WNW,293,0.0,0.0,79,0.00,,,0.00,WUHU216HW,2013-02-09 14:00:00,
2013-02-09 09:05:00,30.2,24.4,30.40,NNW,338,0.0,0.0,79,0.00,,,0.00,WUHU216HW,2013-02-09 14:05:00,
2013-02-09 09:10:00,30.5,24.5,30.40,WNW,293,0.0,0.0,78,0.00,,,0.00,WUHU216HW,2013-02-09 14:10:00,
2013-02-09 09:15:00,30.9,24.8,30.40,NW,315,0.0,0.0,77,0.00,,,0.00,WUHU216HW,2013-02-09 14:15:00,
2013-02-09 09:20:00,31.2,24.9,30.40,NW,315,0.0,0.0,77,0.00,,,0.00,WUHU216HW,2013-02-09 14:20:00,
2013-02-09 09:25:00,31.6,25.2,30.40,NW,315,0.0,0.0,77,0.00,,,0.00,WUHU216HW,2013-02-09 14:25:00,
2013-02-09 09:30:00,32.1,25.1,30.40,NW,315,0.0,0.0,76,0.00,,,0.00,WUHU216HW,2013-02-09 14:30:00,
2013-02-09 09:35:00,32.3,25.6,30.41,NW,315,0.0,0.0,76,0.00,,,0.00,WUHU216HW,2013-02-09 14:35:00,
2013-02-09 09:40:00,32.7,25.9,30.41,WNW,293,0.0,0.0,76,0.00,,,0.00,WUHU216HW,2013-02-09 14:40:00,
2013-02-09 09:45:00,33.6,26.7,30.41,WNW,293,0.0,0.0,76,0.00,,,0.00,WUHU216HW,2013-02-09 14:45:00,
2013-02-09 09:50:00,33.9,26.7,30.41,North,0,0.0,0.0,75,0.00,,,0.00,WUHU216HW,2013-02-09 14:50:00,
2013-02-09 09:55:00,34.3,26.8,30.41,NNW,338,0.0,0.0,74,0.00,,,0.00,WUHU216HW,2013-02-09 14:55:00,
2013-02-09 10:00:00,34.5,26.6,30.41,NW,315,0.0,0.0,73,0.00,,,0.00,WUHU216HW,2013-02-09 15:00:00,
2013-02-09 10:05:00,34.8,26.7,30.41,NW,315,0.0,0.0,72,0.00,,,0.00,WUHU216HW,2013-02-09 15:05:00,
2013-02-09 10:10:00,35.2,27.0,30.41,NW,315,0.0,0.0,72,0.00,,,0.00,WUHU216HW,2013-02-09 15:10:00,
2013-02-09 10:15:00,35.9,27.6,30.41,NW,315,0.0,0.0,72,0.00,,,0.00,WUHU216HW,2013-02-09 15:15:00,
2013-02-09 10:20:00,36.3,27.8,30.41,NW,315,0.0,0.0,71,0.00,,,0.00,WUHU216HW,2013-02-09 15:20:00,
2013-02-09 10:25:00,36.5,27.6,30.41,NW,315,0.0,0.0,70,0.00,,,0.00,WUHU216HW,2013-02-09 15:25:00,
2013-02-09 10:30:00,37.0,28.0,30.41,NW,315,0.0,0.0,69,0.00,,,0.00,WUHU216HW,2013-02-09 15:30:00,
2013-02-09 10:35:00,37.5,27.9,30.41,NNW,338,0.0,0.0,68,0.00,,,0.00,WUHU216HW,2013-02-09 15:35:00,
2013-02-09 10:40:00,38.1,28.0,30.41,NW,315,0.0,0.0,67,0.00,,,0.00,WUHU216HW,2013-02-09 15:40:00,
2013-02-09 10:45:00,38.3,27.8,30.41,NNW,338,0.0,0.0,66,0.00,,,0.00,WUHU216HW,2013-02-09 15:45:00,
2013-02-09 10:50:00,38.4,27.6,30.41,NNW,338,0.0,0.0,65,0.00,,,0.00,WUHU216HW,2013-02-09 15:50:00,
2013-02-09 10:55:00,39.0,27.3,30.41,NNW,338,0.0,0.0,63,0.00,,,0.00,WUHU216HW,2013-02-09 15:55:00,
2013-02-09 11:00:00,39.2,27.9,30.41,NNW,338,0.0,0.0,64,0.00,,,0.00,WUHU216HW,2013-02-09 16:00:00,
2013-02-09 11:05:00,39.7,28.4,30.41,NW,315,0.0,0.0,64,0.00,,,0.00,WUHU216HW,2013-02-09 16:05:00,
2013-02-09 11:10:00,40.6,28.6,30.41,NNW,338,0.0,0.0,62,0.00,,,0.00,WUHU216HW,2013-02-09 16:10:00,
2013-02-09 11:15:00,41.0,28.2,30.41,NNW,338,0.0,0.0,60,0.00,,,0.00,WUHU216HW,2013-02-09 16:15:00,
2013-02-09 11:20:00,41.3,28.5,30.41,NW,315,0.0,0.0,60,0.00,,,0.00,WUHU216HW,2013-02-09 16:20:00,
2013-02-09 11:25:00,42.0,29.1,30.41,NW,315,0.0,0.0,60,0.00,,,0.00,WUHU216HW,2013-02-09 16:25:00,
2013-02-09 11:30:00,42.6,29.6,30.41,WNW,293,0.0,0.0,60,0.00,,,0.00,WUHU216HW,2013-02-09 16:30:00,
2013-02-09 11:35:00,43.3,29.9,30.41,NW,315,0.0,0.0,59,0.00,,,0.00,WUHU216HW,2013-02-09 16:35:00,
2013-02-09 11:40:00,43.8,30.0,30.41,WNW,293,0.0,0.0,58,0.00,,,0.00,WUHU216HW,2013-02-09 16:40:00,
2013-02-09 11:45:00,44.4,30.1,30.41,WNW,293,0.0,0.0,57,0.00,,,0.00,WUHU216HW,2013-02-09 16:45:00,
2013-02-09 11:50:00,44.7,29.1,30.41,WNW,293,0.0,0.0,54,0.00,,,0.00,WUHU216HW,2013-02-09 16:50:00,
2013-02-09 11:55:00,45.1,29.4,30.41,North,0,0.0,0.0,54,0.00,,,0.00,WUHU216HW,2013-02-09 16:55:00,
2013-02-09 12:00:00,45.3,29.5,30.40,North,0,0.0,0.0,54,0.00,,,0.00,WUHU216HW,2013-02-09 17:00:00,
2013-02-09 12:05:00,45.6,29.9,30.40,North,0,0.0,0.0,54,0.00,,,0.00,WUHU216HW,2013-02-09 17:05:00,
2013-02-09 12:10:00,46.2,28.5,30.41,NNW,338,0.0,0.0,50,0.00,,,0.00,WUHU216HW,2013-02-09 17:10:00,
2013-02-09 12:15:00,46.2,28.5,30.40,NNW,338,0.0,0.0,50,0.00,,,0.00,WUHU216HW,2013-02-09 17:15:00,
2013-02-09 12:20:00,46.5,29.3,30.40,SE,135,0.0,0.0,51,0.00,,,0.00,WUHU216HW,2013-02-09 17:20:00,
2013-02-09 12:25:00,47.1,28.3,30.40,NNW,338,0.0,0.0,48,0.00,,,0.00,WUHU216HW,2013-02-09 17:25:00,
2013-02-09 12:30:00,47.1,27.2,30.40,NNW,338,0.0,0.0,46,0.00,,,0.00,WUHU216HW,2013-02-09 17:30:00,
2013-02-09 12:35:00,46.9,27.0,30.39,NW,315,0.0,0.0,46,0.00,,,0.00,WUHU216HW,2013-02-09 17:35:00,
2013-02-09 12:40:00,47.4,28.1,30.39,NNW,338,0.0,0.0,47,0.00,,,0.00,WUHU216HW,2013-02-09 17:40:00,
2013-02-09 12:45:00,47.6,27.1,30.39,NW,315,0.0,0.0,45,0.00,,,0.00,WUHU216HW,2013-02-09 17:45:00,
2013-02-09 12:50:00,47.6,27.1,30.39,NW,315,0.0,0.0,45,0.00,,,0.00,WUHU216HW,2013-02-09 17:50:00,
2013-02-09 12:55:00,47.8,26.8,30.38,NW,315,0.0,0.0,44,0.00,,,0.00,WUHU216HW,2013-02-09 17:55:00,
2013-02-09 13:00:00,48.0,26.9,30.38,NW,315,0.0,0.0,44,0.00,,,0.00,WUHU216HW,2013-02-09 18:00:00,
2013-02-09 13:05:00,48.0,26.9,30.39,NW,315,0.0,0.0,44,0.00,,,0.00,WUHU216HW,2013-02-09 18:05:00,
2013-02-09 13:10:00,48.0,26.9,30.38,WNW,293,0.0,0.0,44,0.00,,,0.00,WUHU216HW,2013-02-09 18:10:00,
2013-02-09 13:15:00,48.3,27.3,30.38,WNW,293,0.0,0.0,44,0.00,,,0.00,WUHU216HW,2013-02-09 18:15:00,
2013-02-09 13:20:00,48.5,25.8,30.38,NNW,338,0.0,0.0,41,0.00,,,0.00,WUHU216HW,2013-02-09 18:20:00,
2013-02-09 13:25:00,48.3,26.2,30.38,NNE,23,0.0,0.0,42,0.00,,,0.00,WUHU216HW,2013-02-09 18:25:00,
2013-02-09 13:30:00,48.3,26.2,30.37,NNW,338,0.0,0.0,42,0.00,,,0.00,WUHU216HW,2013-02-09 18:30:00,
2013-02-09 13:36:00,48.5,25.8,30.37,North,0,0.0,0.0,41,0.00,,,0.00,WUHU216HW,2013-02-09 18:36:00,
2013-02-09 13:41:00,48.5,25.8,30.37,NW,315,0.0,0.0,41,0.00,,,0.00,WUHU216HW,2013-02-09 18:41:00,
2013-02-09 13:46:00,48.7,26.0,30.37,NW,315,0.0,0.0,41,0.00,,,0.00,WUHU216HW,2013-02-09 18:46:00,
2013-02-09 13:51:00,48.9,26.1,30.37,NW,315,0.0,0.0,41,0.00,,,0.00,WUHU216HW,2013-02-09 18:51:00,
2013-02-09 13:56:00,48.9,25.6,30.37,NNW,338,0.0,0.0,40,0.00,,,0.00,WUHU216HW,2013-02-09 18:56:00,
2013-02-09 14:01:00,49.1,25.1,30.37,NW,315,0.0,0.0,39,0.00,,,0.00,WUHU216HW,2013-02-09 19:01:00,
2013-02-09 14:06:00,49.2,25.9,30.36,NW,315,0.0,0.0,40,0.00,,,0.00,WUHU216HW,2013-02-09 19:06:00,
2013-02-09 14:11:00,49.2,25.9,30.36,NW,315,0.0,0.0,40,0.00,,,0.00,WUHU216HW,2013-02-09 19:11:00,
2013-02-09 14:16:00,49.6,26.2,30.36,NW,315,0.0,0.0,40,0.00,,,0.00,WUHU216HW,2013-02-09 19:16:00,
2013-02-09 14:21:00,49.6,26.2,30.36,NW,315,0.0,0.0,40,0.00,,,0.00,WUHU216HW,2013-02-09 19:21:00,
2013-02-09 14:26:00,49.6,25.5,30.35,NW,315,0.0,0.0,39,0.00,,,0.00,WUHU216HW,2013-02-09 19:26:00,
2013-02-09 14:31:00,49.8,25.0,30.35,NW,315,0.0,0.0,38,0.00,,,0.00,WUHU216HW,2013-02-09 19:31:00,
2013-02-09 14:36:00,49.8,25.0,30.35,NW,315,0.0,0.0,38,0.00,,,0.00,WUHU216HW,2013-02-09 19:36:00,
2013-02-09 14:41:00,49.8,25.7,30.35,NW,315,0.0,0.0,39,0.00,,,0.00,WUHU216HW,2013-02-09 19:41:00,
2013-02-09 14:46:00,49.8,25.7,30.35,NW,315,0.0,0.0,39,0.00,,,0.00,WUHU216HW,2013-02-09 19:46:00,
2013-02-09 14:51:00,49.8,25.7,30.35,NW,315,0.0,0.0,39,0.00,,,0.00,WUHU216HW,2013-02-09 19:51:00,
2013-02-09 14:56:00,50.0,27.1,30.35,NW,315,0.0,0.0,41,0.00,,,0.00,WUHU216HW,2013-02-09 19:56:00,
2013-02-09 15:01:00,50.1,25.3,30.35,West,270,0.0,0.0,38,0.00,,,0.00,WUHU216HW,2013-02-09 20:01:00,
2013-02-09 15:06:00,50.3,25.3,30.35,West,270,0.0,0.0,38,0.00,,,0.00,WUHU216HW,2013-02-09 20:06:00,
2013-02-09 15:11:00,50.5,25.0,30.35,NNW,338,0.0,0.0,37,0.00,,,0.00,WUHU216HW,2013-02-09 20:11:00,
2013-02-09 15:16:00,50.5,25.0,30.34,NNW,338,0.0,0.0,37,0.00,,,0.00,WUHU216HW,2013-02-09 20:16:00,
2013-02-09 15:21:00,50.5,25.7,30.34,NNW,338,0.0,0.0,38,0.00,,,0.00,WUHU216HW,2013-02-09 20:21:00,
2013-02-09 15:26:00,50.5,27.0,30.34,NNW,338,0.0,0.0,40,0.00,,,0.00,WUHU216HW,2013-02-09 20:26:00,
2013-02-09 15:31:00,50.3,25.5,30.34,NW,315,0.0,0.0,38,0.00,,,0.00,WUHU216HW,2013-02-09 20:31:00,
2013-02-09 15:36:00,50.5,25.7,30.34,NW,315,0.0,0.0,38,0.00,,,0.00,WUHU216HW,2013-02-09 20:36:00,
2013-02-09 15:41:00,50.7,25.8,30.34,NW,315,0.0,0.0,38,0.00,,,0.00,WUHU216HW,2013-02-09 20:41:00,
2013-02-09 15:46:00,50.7,25.8,30.34,NW,315,0.0,0.0,38,0.00,,,0.00,WUHU216HW,2013-02-09 20:46:00,
2013-02-09 15:51:00,50.9,25.3,30.34,NW,315,0.0,0.0,37,0.00,,,0.00,WUHU216HW,2013-02-09 20:51:00,
2013-02-09 15:56:00,51.0,26.8,30.34,NW,315,0.0,0.0,39,0.00,,,0.00,WUHU216HW,2013-02-09 20:56:00,
2013-02-09 16:01:00,51.2,27.0,30.34,NW,315,0.0,0.0,39,0.00,,,0.00,WUHU216HW,2013-02-09 21:01:00,
2013-02-09 16:06:00,51.4,25.8,30.34,NW,315,0.0,0.0,37,0.00,,,0.00,WUHU216HW,2013-02-09 21:06:00,
2013-02-09 16:11:00,51.6,26.0,30.34,NW,315,0.0,0.0,37,0.00,,,0.00,WUHU216HW,2013-02-09 21:11:00,
2013-02-09 16:16:00,51.6,26.0,30.34,NW,315,0.0,0.0,37,0.00,,,0.00,WUHU216HW,2013-02-09 21:16:00,
2013-02-09 16:21:00,51.9,27.0,30.34,NNW,338,0.0,0.0,38,0.00,,,0.00,WUHU216HW,2013-02-09 21:21:00,
2013-02-09 16:26:00,51.9,27.0,30.34,NNW,338,0.0,0.0,38,0.00,,,0.00,WUHU216HW,2013-02-09 21:26:00,
2013-02-09 16:31:00,51.9,27.6,30.34,NNW,338,0.0,0.0,39,0.00,,,0.00,WUHU216HW,2013-02-09 21:31:00,
2013-02-09 16:36:00,51.9,28.3,30.34,NNW,338,0.0,0.0,40,0.00,,,0.00,WUHU216HW,2013-02-09 21:36:00,
2013-02-09 16:41:00,51.9,26.3,30.33,NNW,338,0.0,0.0,37,0.00,,,0.00,WUHU216HW,2013-02-09 21:41:00,
2013-02-09 16:46:00,51.9,27.0,30.34,WSW,248,0.0,0.0,38,0.00,,,0.00,WUHU216HW,2013-02-09 21:46:00,
2013-02-09 16:51:00,51.6,26.0,30.34,WSW,248,0.0,0.0,37,0.00,,,0.00,WUHU216HW,2013-02-09 21:51:00,
2013-02-09 16:56:00,51.6,26.6,30.34,NNW,338,0.0,0.0,38,0.00,,,0.00,WUHU216HW,2013-02-09 21:56:00,
2013-02-09 17:01:00,51.6,27.3,30.34,NNW,338,0.0,0.0,39,0.00,,,0.00,WUHU216HW,2013-02-09 22:01:00,
2013-02-09 17:06:00,51.6,28.0,30.34,NNW,338,0.0,0.0,40,0.00,,,0.00,WUHU216HW,2013-02-09 22:06:00,
2013-02-09 17:11:00,51.6,28.6,30.34,NNW,338,0.0,0.0,41,0.00,,,0.00,WUHU216HW,2013-02-09 22:11:00,
2013-02-09 17:16:00,51.6,28.6,30.34,NNW,338,0.0,0.0,41,0.00,,,0.00,WUHU216HW,2013-02-09 22:16:00,
2013-02-09 17:21:00,51.4,28.4,30.34,NNW,338,0.0,0.0,41,0.00,,,0.00,WUHU216HW,2013-02-09 22:21:00,
2013-02-09 17:26:00,51.2,28.2,30.34,NNW,338,0.0,0.0,41,0.00,,,0.00,WUHU216HW,2013-02-09 22:26:00,
2013-02-09 17:31:00,50.9,28.5,30.34,NNW,338,0.0,0.0,42,0.00,,,0.00,WUHU216HW,2013-02-09 22:31:00,
2013-02-09 17:36:00,50.5,28.2,30.34,NNW,338,0.0,0.0,42,0.00,,,0.00,WUHU216HW,2013-02-09 22:36:00,
2013-02-09 17:41:00,50.1,27.3,30.34,NNW,338,0.0,0.0,41,0.00,,,0.00,WUHU216HW,2013-02-09 22:41:00,
2013-02-09 17:46:00,49.8,27.5,30.34,NNW,338,0.0,0.0,42,0.00,,,0.00,WUHU216HW,2013-02-09 22:46:00,
2013-02-09 17:51:00,49.1,26.8,30.34,NNW,338,0.0,0.0,42,0.00,,,0.00,WUHU216HW,2013-02-09 22:51:00,
2013-02-09 17:56:00,48.7,26.5,30.34,NNW,338,0.0,0.0,42,0.00,,,0.00,WUHU216HW,2013-02-09 22:56:00,
2013-02-09 18:01:00,48.3,26.7,30.34,NNW,338,0.0,0.0,43,0.00,,,0.00,WUHU216HW,2013-02-09 23:01:00,
2013-02-09 18:06:00,47.6,26.8,30.34,NNW,338,0.0,0.0,44,0.00,,,0.00,WUHU216HW,2013-02-09 23:06:00,
2013-02-09 18:11:00,47.3,26.3,30.34,NNW,338,0.0,0.0,44,0.00,,,0.00,WUHU216HW,2013-02-09 23:11:00,
2013-02-09 18:16:00,46.7,26.3,30.34,NNW,338,0.0,0.0,45,0.00,,,0.00,WUHU216HW,2013-02-09 23:16:00,
2013-02-09 18:21:00,46.4,26.4,30.34,NNW,338,0.0,0.0,46,0.00,,,0.00,WUHU216HW,2013-02-09 23:21:00,
2013-02-09 18:26:00,45.8,26.1,30.34,NNW,338,0.0,0.0,46,0.00,,,0.00,WUHU216HW,2013-02-09 23:26:00,
2013-02-09 18:31:00,45.5,25.7,30.35,NNW,338,0.0,0.0,46,0.00,,,0.00,WUHU216HW,2013-02-09 23:31:00,
2013-02-09 18:36:00,44.9,25.8,30.35,NNW,338,0.0,0.0,47,0.00,,,0.00,WUHU216HW,2013-02-09 23:36:00,
2013-02-09 18:41:00,44.4,25.8,30.35,NNW,338,0.0,0.0,48,0.00,,,0.00,WUHU216HW,2013-02-09 23:41:00,
2013-02-09 18:46:00,44.0,25.5,30.35,NNW,338,0.0,0.0,48,0.00,,,0.00,WUHU216HW,2013-02-09 23:46:00,
2013-02-09 18:51:00,43.5,25.6,30.35,NNW,338,0.0,0.0,49,0.00,,,0.00,WUHU216HW,2013-02-09 23:51:00,
2013-02-09 18:56:00,42.9,25.1,30.35,NNW,338,0.0,0.0,49,0.00,,,0.00,WUHU216HW,2013-02-09 23:56:00,
2013-02-09 19:01:00,42.4,25.1,30.35,NNW,338,0.0,0.0,50,0.00,,,0.00,WUHU216HW,2013-02-10 00:01:00,
2013-02-09 19:06:00,42.0,24.8,30.35,NNW,338,0.0,0.0,50,0.00,,,0.00,WUHU216HW,2013-02-10 00:06:00,
2013-02-09 19:11:00,41.7,24.4,30.36,NNW,338,0.0,0.0,50,0.00,,,0.00,WUHU216HW,2013-02-10 00:11:00,
2013-02-09 19:16:00,41.1,24.3,30.36,NNW,338,0.0,0.0,51,0.00,,,0.00,WUHU216HW,2013-02-10 00:16:00,
2013-02-09 19:21:00,41.0,24.1,30.36,NNW,338,0.0,0.0,51,0.00,,,0.00,WUHU216HW,2013-02-10 00:21:00,
2013-02-09 19:26:00,40.8,24.4,30.36,NNW,338,0.0,0.0,52,0.00,,,0.00,WUHU216HW,2013-02-10 00:26:00,
2013-02-09 19:31:00,40.2,23.9,30.37,NNW,338,0.0,0.0,52,0.00,,,0.00,WUHU216HW,2013-02-10 00:31:00,
2013-02-09 19:36:00,39.9,23.6,30.37,NNW,338,0.0,0.0,52,0.00,,,0.00,WUHU216HW,2013-02-10 00:36:00,
2013-02-09 19:41:00,39.7,23.8,30.37,NNW,338,0.0,0.0,53,0.00,,,0.00,WUHU216HW,2013-02-10 00:41:00,
2013-02-09 19:46:00,39.3,23.5,30.37,NNW,338,0.0,0.0,53,0.00,,,0.00,WUHU216HW,2013-02-10 00:46:00,
2013-02-09 19:51:00,39.0,23.2,30.37,NNW,338,0.0,0.0,53,0.00,,,0.00,WUHU216HW,2013-02-10 00:51:00,
2013-02-09 19:56:00,38.8,23.5,30.37,NNW,338,0.0,0.0,54,0.00,,,0.00,WUHU216HW,2013-02-10 00:56:00,
2013-02-09 20:01:00,38.3,22.5,30.37,NNW,338,0.0,0.0,53,0.00,,,0.00,WUHU216HW,2013-02-10 01:01:00,
2013-02-09 20:06:00,37.9,22.6,30.37,NNW,338,0.0,0.0,54,0.00,,,0.00,WUHU216HW,2013-02-10 01:06:00,
2013-02-09 20:11:00,37.7,22.5,30.37,NNW,338,0.0,0.0,54,0.00,,,0.00,WUHU216HW,2013-02-10 01:11:00,
2013-02-09 20:16:00,37.4,22.2,30.37,NNW,338,0.0,0.0,54,0.00,,,0.00,WUHU216HW,2013-02-10 01:16:00,
2013-02-09 20:21:00,37.2,22.4,30.38,NNW,338,0.0,0.0,55,0.00,,,0.00,WUHU216HW,2013-02-10 01:21:00,
2013-02-09 20:26:00,37.0,22.3,30.38,NNW,338,0.0,0.0,55,0.00,,,0.00,WUHU216HW,2013-02-10 01:26:00,
2013-02-09 20:31:00,36.6,22.4,30.38,NNW,338,0.0,0.0,56,0.00,,,0.00,WUHU216HW,2013-02-10 01:31:00,
2013-02-09 20:37:00,36.3,22.1,30.38,NNW,338,0.0,0.0,56,0.00,,,0.00,WUHU216HW,2013-02-10 01:37:00,
2013-02-09 20:42:00,36.3,22.1,30.38,NNW,338,0.0,0.0,56,0.00,,,0.00,WUHU216HW,2013-02-10 01:42:00,
2013-02-09 20:47:00,35.9,22.2,30.39,NNW,338,0.0,0.0,57,0.00,,,0.00,WUHU216HW,2013-02-10 01:47:00,
2013-02-09 20:52:00,35.7,21.6,30.38,NNW,338,0.0,0.0,56,0.00,,,0.00,WUHU216HW,2013-02-10 01:52:00,
2013-02-09 20:57:00,35.7,22.0,30.38,NNW,338,0.0,0.0,57,0.00,,,0.00,WUHU216HW,2013-02-10 01:57:00,
2013-02-09 21:02:00,35.4,21.7,30.38,NNW,338,0.0,0.0,57,0.00,,,0.00,WUHU216HW,2013-02-10 02:02:00,
2013-02-09 21:07:00,35.4,21.7,30.38,NNW,338,0.0,0.0,57,0.00,,,0.00,WUHU216HW,2013-02-10 02:07:00,
2013-02-09 21:12:00,35.2,21.9,30.38,NNW,338,0.0,0.0,58,0.00,,,0.00,WUHU216HW,2013-02-10 02:12:00,
2013-02-09 21:17:00,34.8,21.5,30.39,NNW,338,0.0,0.0,58,0.00,,,0.00,WUHU216HW,2013-02-10 02:17:00,
2013-02-09 21:22:00,34.7,21.8,30.39,NNW,338,0.0,0.0,59,0.00,,,0.00,WUHU216HW,2013-02-10 02:22:00,
2013-02-09 21:27:00,34.3,21.4,30.39,North,0,0.0,0.0,59,0.00,,,0.00,WUHU216HW,2013-02-10 02:27:00,
2013-02-09 21:32:00,34.3,21.9,30.39,North,0,0.0,0.0,60,0.00,,,0.00,WUHU216HW,2013-02-10 02:32:00,
2013-02-09 21:37:00,34.3,21.9,30.39,North,0,0.0,0.0,60,0.00,,,0.00,WUHU216HW,2013-02-10 02:37:00,
2013-02-09 21:42:00,34.1,21.3,30.38,North,0,0.0,0.0,59,0.00,,,0.00,WUHU216HW,2013-02-10 02:42:00,
2013-02-09 21:47:00,33.9,21.5,30.38,North,0,0.0,0.0,60,0.00,,,0.00,WUHU216HW,2013-02-10 02:47:00,
2013-02-09 21:52:00,33.8,21.7,30.39,North,0,0.0,0.0,61,0.00,,,0.00,WUHU216HW,2013-02-10 02:52:00,
2013-02-09 21:57:00,33.6,21.9,30.39,NE,45,0.0,0.0,62,0.00,,,0.00,WUHU216HW,2013-02-10 02:57:00,
2013-02-09 22:02:00,33.6,21.9,30.39,NE,45,0.0,0.0,62,0.00,,,0.00,WUHU216HW,2013-02-10 03:02:00,
2013-02-09 22:07:00,33.4,22.1,30.39,NE,45,0.0,0.0,63,0.00,,,0.00,WUHU216HW,2013-02-10 03:07:00,
2013-02-09 22:12:00,33.4,22.1,30.39,NE,45,0.0,0.0,63,0.00,,,0.00,WUHU216HW,2013-02-10 03:12:00,
2013-02-09 22:17:00,33.2,22.3,30.39,NE,45,0.0,0.0,64,0.00,,,0.00,WUHU216HW,2013-02-10 03:17:00,
2013-02-09 22:22:00,33.0,22.1,30.39,NE,45,0.0,0.0,64,0.00,,,0.00,WUHU216HW,2013-02-10 03:22:00,
2013-02-09 22:27:00,32.9,22.3,30.39,NE,45,0.0,0.0,65,0.00,,,0.00,WUHU216HW,2013-02-10 03:27:00,
2013-02-09 22:32:00,32.7,22.2,30.38,NE,45,0.0,0.0,65,0.00,,,0.00,WUHU216HW,2013-02-10 03:32:00,
2013-02-09 22:37:00,32.7,22.5,30.38,NE,45,0.0,0.0,66,0.00,,,0.00,WUHU216HW,2013-02-10 03:37:00,
2013-02-09 22:42:00,32.7,22.5,30.38,NE,45,0.0,0.0,66,0.00,,,0.00,WUHU216HW,2013-02-10 03:42:00,
2013-02-09 22:47:00,32.5,22.7,30.39,NE,45,0.0,0.0,67,0.00,,,0.00,WUHU216HW,2013-02-10 03:47:00,
2013-02-09 22:52:00,32.5,22.7,30.38,NE,45,0.0,0.0,67,0.00,,,0.00,WUHU216HW,2013-02-10 03:52:00,
2013-02-09 22:57:00,32.5,23.1,30.38,NE,45,0.0,0.0,68,0.00,,,0.00,WUHU216HW,2013-02-10 03:57:00,
2013-02-09 23:02:00,32.3,22.9,30.39,NE,45,0.0,0.0,68,0.00,,,0.00,WUHU216HW,2013-02-10 04:02:00,
2013-02-09 23:07:00,32.3,22.9,30.39,NE,45,0.0,0.0,68,0.00,,,0.00,WUHU216HW,2013-02-10 04:07:00,
2013-02-09 23:12:00,32.1,22.8,30.39,NE,45,0.0,0.0,68,0.00,,,0.00,WUHU216HW,2013-02-10 04:12:00,
2013-02-09 23:17:00,32.1,23.1,30.39,NE,45,0.0,0.0,69,0.00,,,0.00,WUHU216HW,2013-02-10 04:17:00,
2013-02-09 23:22:00,32.1,23.1,30.39,NE,45,0.0,0.0,69,0.00,,,0.00,WUHU216HW,2013-02-10 04:22:00,
2013-02-09 23:27:00,32.1,23.5,30.39,NE,45,0.0,0.0,70,0.00,,,0.00,WUHU216HW,2013-02-10 04:27:00,
2013-02-09 23:32:00,32.1,23.5,30.38,NE,45,0.0,0.0,70,0.00,,,0.00,WUHU216HW,2013-02-10 04:32:00,
2013-02-09 23:37:00,32.1,23.5,30.39,NE,45,0.0,0.0,70,0.00,,,0.00,WUHU216HW,2013-02-10 04:37:00,
2013-02-09 23:42:00,32.1,23.8,30.39,NE,45,0.0,0.0,70,0.00,,,0.00,WUHU216HW,2013-02-10 04:42:00,
2013-02-09 23:47:00,32.1,23.8,30.39,NE,45,0.0,0.0,71,0.00,,,0.00,WUHU216HW,2013-02-10 04:47:00,
2013-02-09 23:52:00,32.1,23.8,30.39,NE,45,0.0,0.0,71,0.00,,,0.00,WUHU216HW,2013-02-10 04:52:00,
2013-02-09 23:57:00,32.0,23.5,30.39,NE,45,0.0,0.0,71,0.00,,,0.00,WUHU216HW,2013-02-10 04:57:00,